Location: Recife
(8.0585°S, 34.8848°W)
Time: 10:25:32
(UTC-03:00)

Injun/Solrad 3 - Pass Details

Date: 16 April 2026
Orbit: 868 x 988 km, 66.8° (Epoch: 14 May)

Event Time Altitude Azimuth Distance (km) Brightness Sun altitude
Rises 08:09:46 0° 340° (NNW) 3,679 11.0 39.4°
Reaches altitude 10° 08:12:20 10° 340° (NNW) 2,732 10.5 40.0°
Maximum altitude 08:18:45 87° 250° (WSW) 984 8.8 41.5°
Drops below altitude 10° 08:25:07 10° 161° (SSE) 2,704 10.4 42.9°
Sets 08:27:39 0° 160° (SSE) 3,638 11.0 43.5°
